CZ-6A DEB, 54325

Orbit data source: Space-Track

CZ-6A DEB, 54325 is space debris in SSO originally from a launch on Fri, 11 Nov 2022 UTC launched from the Taiyaun Space Center, China (TSC). Debris objects in space refer to the collection of defunct objects orbiting the Earth. Examples of debris include non-operational satellites, rocket bodies, and fragments generated from explosions, collisions, or faulty payload assembly.

Loading next visibility...
Identifier
54325, 2022-151BU
Orbit
SSO
Country
Flag of CNCN / PRC
Related business
Manufacturer
SAST
Mission
Spacecraft
Bus & Motor
Unknown
Mass
Unknown
Launch date (UTC)
2022-11-11 (4 years ago)
Launch vehicle
Unknown
Launch site
Taiyaun Space Center, China (TSC)
Object type
Payload
Rocket body
Debris
Shape & HBR
Unknown shape, 0.1 m
Radar Cross Section
Medium (>0.1 m² and <1 m²)

Expand to show TLE details & history
Last TLE update: 22 hours ago

TLE from 22 hours ago
0 CZ-6A DEB
1 54325U 22151BU  26235.26882631  .00000191  00000-0  12392-3 0  9995
2 54325  98.8090 236.1628 0033492 136.9086 223.4717 14.13448122194322
Epoch: 2026-08-23T06:27Z
TLE epoch observation values (Epoch: 2026-08-23T06:27:06.593Z)
Latitude
-0.00004°
Longitude
167.81802°
Altitude
868.103 km
Speed
7.409 km/s
True Right ascension
15h 44m 39s
True Declination
0° 00' 00"
Sunlit
Object was in daylight at epoch
Visualization orbit readout
Latitude
Unknown
Longitude
Unknown
Altitude
Unknown
Speed
Unknown
Apparent Right ascension
Unknown
Apparent Declination
Unknown
Sunlit
N/A
Visualization observer readout
Local Sidereal Time
19:34:24
Azimuth
Unknown
Elevation
Unknown
Doppler factor
Unknown
Orbital elements
Apogee altitude
868.959 km
Perigee altitude
820.577 km
Semi-major axis
7,222.905 km
Eccentricity
0.00335
Inclination
98.809°
RAAN
236.1628°
Arg. of periapsis
136.9086°
True anomaly
223.20845°
Mean anomaly
223.4717°
Eccentric anomaly
223.34°
Mean motion
3.5357 °/min
Orbital period
101.82 mins
BSTAR
0.00012392
Loading maneuver chart data...
Computing Atmospheric mass density...
Loading historical data...
Loading historical data...
Loading historical data...
Loading historical data...
Loading historical data...
Loading historical data...
Loading historical data...

Documentation

Showing up to 5 results
|